Vertical_Velocity
-5 -4 -4 -3 -2 -2 -2 -3 -1 -3 -4 -2 -1 -2 -5 -5 -2 -1 -3 -2 -1 -2 -3 -4 -3 -2 -3 -3 -3 -0 -1 4 0 3 1 1 2 3 4 3 3 2 -2
-3 -2 -2 -3 -3 -3 -4 -3 -6 -9 -8 -3 -7 -4 -4 -3 -7 -7 -5 -3 -2 -3 -6 -0 -2 -2 0 -2 -3 -3 -4 6 2 2 4 1 3 5 5 8 5 7 1
-3 -3 -3 -2 -1 -2 -1 -5 -4 -2 -3 -2 -6 -7 -7 -6 -6 -4 -5 -6 -6 -3 -3 -3 0 -1 0 3 -1 -1 -5 -2 7 5 2 2 1 5 8 7 11 12 -3
-3 -3 -4 -2 -4 -6 -6 -5 -4 -7 -6 -4 -3 -3 -2 -1 -2 -5 -2 -2 1 -1 -8 -5 -1 2 1 -0 0 -2 -3 2 -2 4 8 0 -1 6 9 10 -24 -16 5
-3 -5 -5 -5 -5 -8 -5 -3 -4 -0 -3 -4 -5 -3 -1 -5 -5 -3 -4 -0 -2 -3 -4 1 8 4 3 5 6 1 -5 -3 -1 1 5 8 17 5 7 -6 47 -6 13
-3 -4 -4 -3 -3 -5 -3 -2 -2 -2 -0 1 -2 -4 -3 -3 -2 1 -4 6 16 11 10 3 4 2 -2 8 -2 7 4 -2 -3 -1 -1 4 -9 -5 -26 -5 25 -18 6
-4 -4 -3 -5 -3 -2 0 -0 0 0 -2 -2 -5 -2 -8 -11 -3 22 8 -6 -6 -4 -1 1 -0 2 -1 -5 1 -1 8 6 4 -3 1 10 -16 -38 -14 -9 1 -1 -4
-2 -3 -2 -2 -1 -1 -2 -1 0 -4 -4 -2 2 -1 -11 -31 10 -2 5 6 -8 14 9 -2 13 -6 1 -2 -2 2 4 -1 3 4 -1 14 19 13 14 -25 -18 -1 -9
-1 -1 1 -1 -1 1 -1 -0 -1 0 -1 -1 0 12 -5 -2 -23 3 -19 -4 -7 -6 -3 7 -8 -1 -4 -2 1 -0 1 7 -2 -3 2 5 9 8 -9 -12 -3 14 56
-4 -3 -3 -2 -2 -1 -3 -3 2 1 1 -1 -1 1 2 5 6 -33 -1 -21 -10 11 -2 -2 1 -7 -1 -3 -1 -3 4 7 -8 -0 3 2 7 -3 2 -27 -5 -3 12
-3 -2 -3 -4 -4 -1 -0 -0 -2 -1 1 2 1 1 1 -2 -1 8 -19 -6 -22 -4 -9 -6 1 5 -3 -2 1 -27 9 -3 -1 -7 2 3 -1 6 -1 2 -11 -1 0
-3 -3 -3 -2 -1 -1 -2 -1 -0 -1 -1 1 0 1 7 11 -0 4 0 -2 -6 -12 -4 -5 -5 4 4 1 7 -9 -3 14 -6 -4 2 -1 1 4 10 5 -9 -4 17
-3 -3 -1 -2 -1 -1 -1 -0 -2 0 2 1 2 1 4 3 -1 4 5 -6 -2 -10 -12 -6 16 8 7 -1 -1 4 -24 -10 21 5 2 5 15 8 3 7 -2 13 11
-3 -1 -2 -1 -1 -1 0 1 1 -0 1 2 -0 1 2 5 3 6 17 8 -13 -6 -2 -10 -9 4 5 2 1 2 -16 27 8 4 -1 2 -5 2 1 7 1 -8 29
-1 -2 -1 -0 -0 -1 -2 -1 -2 1 1 1 1 1 -1 1 -3 -2 2 8 13 -2 -10 -19 -11 1 -1 -4 -7 -4 -3 12 6 2 10 -11 1 -2 -3 3 4 3 -1
-2 -1 -0 -1 -2 -3 0 1 -2 -3 1 0 -3 5 3 -3 3 -3 11 -6 5 11 -2 3 -5 -5 -5 -3 -5 1 -6 8 12 7 -3 2 -11 4 -3 11 0 0 -17
-1 -2 -1 -1 -3 -0 0 -1 -0 -1 1 -1 -2 -1 1 0 -3 -3 -1 0 -0 5 7 -12 -3 -5 -6 1 -7 -1 -8 -3 11 1 7 -20 4 0 6 -6 -15 6 2
-0 -1 -1 -2 -1 -0 -1 -0 -1 -2 -0 -2 -2 -2 -4 -0 -1 -0 -1 1 3 3 3 -7 -3 -5 -1 -3 -8 -6 2 10 12 -4 6 2 9 4 -4 10 8 -9 1
-1 -2 -3 -0 -2 -1 -0 1 -1 -2 0 -2 -1 -0 -4 -2 -4 -2 -0 2 1 0 -1 1 -10 -1 -2 3 -2 -1 2 -2 2 -4 10 7 -6 49 2 6 -3 -17 18
-2 -2 -1 -1 -1 1 -1 -1 -1 -2 -3 -1 -2 -1 -1 1 0 3 -0 -1 1 1 2 1 0 -5 6 1 9 5 -12 0 -4 10 1 -2 8 10 0 2 -3 32 -10
-2 -2 -2 0 1 -0 -1 -2 2 0 -2 -1 2 1 4 5 5 6 5 -1 1 1 0 2 -5 1 -1 -6 14 -0 4 -0 -4 3 2 -1 6 23 11 8 -10 8 -9
-2 1 -1 -0 -0 -1 -1 -1 4 3 2 -1 -2 -3 -2 -3 -3 -0 -2 1 11 6 2 4 2 1 -4 0 5 -4 -1 -9 -9 -1 9 4 1 17 6 1 -4 -1 18
-0 0 -1 -0 -1 -0 -2 1 2 1 1 1 -0 -2 -2 -2 -0 -1 -2 -2 1 3 1 3 -1 -2 5 5 4 -2 -0 -1 5 1 8 4 3 6 14 -1 4 13 44
-1 -0 -1 1 -1 -0 -2 2 2 -1 -2 -2 -1 -1 -2 -2 -2 1 0 -4 1 0 -0 -4 -1 -1 1 2 1 7 0 3 8 1 7 5 8 6 4 -6 7 17 38
-1 -2 -1 0 -1 -3 0 0 2 -0 -1 -2 -0 -1 -1 -2 -2 2 2 -3 1 -5 -0 2 1 -5 -3 -3 -1 -5 -1 -1 -1 -3 -5 4 3 2 0 1 -6 4 19
-2 -2 -3 0 0 -3 1 3 5 2 -2 -1 1 0 1 2 3 3 2 0 0 2 3 -1 -2 -1 4 -5 -2 6 1 -2 2 -0 5 6 1 0 -8 1 4 1 5
Height
1512 1509 1507 1504 1500 1496 1493 1490 1486 1483 1480 1476 1474 1471 1467 1464 1461 1457 1453 1450 1448 1446 1444 1444 1443 1442 1441 1442 1442 1443 1445 1446 1449 1452 1455 1458 1461 1465 1468 1472 1475 1479 1484
1510 1507 1504 1501 1497 1494 1490 1487 1483 1479 1476 1473 1469 1467 1463 1458 1455 1451 1448 1443 1441 1438 1436 1434 1433 1432 1431 1432 1433 1433 1434 1435 1437 1440 1444 1447 1450 1454 1458 1461 1463 1468 1475
1508 1505 1501 1498 1495 1491 1488 1484 1480 1476 1472 1469 1465 1462 1458 1454 1449 1444 1440 1437 1433 1430 1427 1425 1424 1423 1422 1421 1422 1423 1424 1425 1426 1428 1432 1436 1439 1442 1446 1453 1446 1455 1466
1506 1503 1499 1496 1492 1489 1485 1481 1478 1473 1470 1465 1461 1456 1451 1447 1442 1438 1433 1430 1426 1422 1420 1418 1417 1414 1412 1411 1411 1412 1413 1415 1416 1418 1420 1424 1428 1431 1436 1440 1441 1438 1456
1504 1500 1497 1493 1490 1486 1483 1479 1476 1472 1466 1461 1456 1451 1445 1439 1434 1430 1426 1422 1419 1417 1414 1412 1410 1406 1403 1401 1401 1401 1402 1404 1405 1406 1408 1412 1414 1418 1425 1428 1424 1431 1448
1501 1497 1494 1490 1486 1483 1480 1477 1473 1468 1463 1457 1451 1443 1437 1432 1427 1423 1420 1418 1416 1411 1409 1405 1402 1399 1396 1393 1391 1392 1393 1395 1396 1396 1398 1400 1399 1404 1414 1410 1410 1420 1438
1497 1494 1490 1486 1483 1480 1477 1473 1468 1464 1459 1455 1448 1439 1430 1423 1421 1421 1417 1411 1409 1407 1404 1399 1396 1393 1390 1387 1386 1385 1385 1385 1386 1385 1387 1391 1395 1393 1394 1400 1406 1418 1430
1494 1490 1486 1482 1479 1475 1472 1468 1465 1460 1456 1453 1448 1441 1427 1414 1415 1412 1412 1408 1406 1403 1397 1394 1391 1386 1383 1381 1379 1377 1376 1376 1375 1376 1376 1380 1385 1386 1390 1400 1400 1410 1420
1490 1486 1482 1477 1474 1471 1467 1464 1460 1457 1451 1448 1447 1444 1434 1423 1414 1408 1406 1404 1400 1396 1392 1387 1384 1380 1377 1375 1373 1371 1369 1369 1367 1367 1367 1369 1374 1377 1380 1386 1395 1402 1407
1485 1481 1477 1473 1470 1466 1462 1459 1457 1453 1449 1443 1440 1439 1435 1429 1421 1400 1400 1398 1396 1391 1387 1383 1379 1375 1372 1369 1366 1364 1362 1359 1358 1358 1359 1361 1365 1367 1371 1378 1387 1397 1403
1480 1476 1472 1469 1465 1461 1458 1455 1451 1448 1445 1440 1436 1432 1428 1423 1420 1414 1391 1392 1391 1387 1382 1378 1374 1370 1365 1362 1359 1358 1353 1350 1348 1349 1350 1353 1357 1361 1365 1370 1378 1384 1393
1475 1472 1468 1464 1460 1457 1453 1449 1445 1442 1438 1435 1431 1427 1423 1418 1412 1409 1400 1391 1386 1379 1376 1372 1368 1364 1361 1357 1352 1350 1347 1341 1341 1341 1343 1344 1348 1353 1358 1364 1367 1370 1379
1470 1467 1463 1459 1455 1452 1447 1444 1440 1436 1433 1429 1425 1421 1417 1412 1408 1403 1397 1388 1382 1375 1370 1366 1365 1361 1356 1350 1346 1343 1339 1336 1334 1332 1334 1336 1339 1342 1347 1352 1357 1354 1358
1465 1461 1457 1453 1449 1446 1442 1438 1435 1430 1427 1423 1419 1415 1411 1406 1402 1399 1394 1388 1378 1372 1367 1362 1360 1356 1350 1345 1341 1337 1331 1324 1324 1323 1324 1327 1328 1331 1337 1344 1352 1358 1362
1460 1456 1452 1447 1443 1440 1436 1433 1428 1424 1421 1417 1412 1409 1405 1400 1396 1393 1389 1386 1380 1368 1361 1358 1355 1353 1347 1342 1336 1331 1326 1318 1317 1315 1316 1315 1319 1322 1327 1333 1341 1348 1355
1455 1451 1446 1442 1438 1434 1430 1427 1423 1419 1415 1411 1407 1402 1398 1395 1391 1387 1383 1381 1376 1370 1360 1358 1351 1349 1344 1337 1331 1326 1320 1315 1312 1310 1307 1308 1309 1310 1317 1322 1328 1334 1345
1449 1445 1440 1436 1432 1428 1425 1421 1417 1413 1409 1405 1401 1396 1392 1389 1385 1382 1378 1375 1372 1368 1360 1352 1349 1344 1339 1336 1329 1322 1318 1314 1310 1306 1303 1305 1301 1302 1307 1308 1309 1314 1326
1444 1439 1435 1431 1427 1423 1419 1415 1411 1408 1403 1399 1395 1391 1387 1384 1380 1377 1374 1371 1368 1365 1360 1351 1347 1341 1338 1334 1327 1321 1315 1308 1305 1304 1302 1300 1294 1295 1299 1300 1297 1281 1300
1438 1434 1430 1427 1423 1418 1413 1409 1406 1402 1398 1394 1390 1386 1382 1379 1376 1373 1370 1367 1365 1361 1357 1351 1345 1340 1335 1331 1328 1320 1315 1308 1304 1300 1296 1294 1290 1287 1292 1293 1299 1300 1304
1433 1430 1426 1422 1418 1413 1409 1404 1401 1397 1393 1389 1385 1381 1378 1375 1372 1369 1367 1364 1362 1359 1355 1350 1344 1338 1334 1330 1327 1320 1312 1307 1302 1298 1295 1291 1290 1285 1288 1289 1292 1300 1310
1429 1425 1421 1417 1413 1409 1405 1402 1397 1392 1388 1384 1380 1377 1374 1371 1368 1366 1363 1360 1359 1356 1353 1349 1345 1339 1333 1328 1327 1321 1313 1306 1302 1298 1296 1294 1292 1282 1288 1288 1293 1299 1308
1425 1421 1417 1413 1408 1405 1401 1399 1394 1389 1384 1380 1375 1372 1369 1366 1363 1361 1359 1357 1356 1354 1351 1348 1345 1340 1335 1331 1328 1324 1318 1311 1306 1301 1298 1294 1291 1285 1288 1289 1292 1297 1304
1420 1416 1413 1409 1404 1401 1398 1394 1390 1385 1380 1376 1372 1368 1364 1361 1359 1356 1354 1352 1351 1351 1350 1347 1344 1342 1338 1334 1331 1326 1322 1318 1313 1307 1303 1298 1295 1290 1288 1295 1297 1299 1307
1415 1411 1408 1404 1400 1396 1394 1389 1385 1380 1376 1371 1368 1364 1360 1357 1355 1353 1351 1348 1346 1346 1346 1346 1342 1341 1339 1335 1332 1330 1326 1320 1315 1312 1309 1304 1300 1293 1300 1304 1306 1310 1315
1411 1407 1404 1399 1395 1391 1388 1384 1381 1376 1372 1368 1365 1361 1357 1354 1351 1350 1348 1345 1343 1342 1342 1342 1341 1339 1338 1336 1334 1331 1328 1323 1318 1316 1313 1311 1309 1310 1311 1313 1316 1322 1327
1407 1404 1399 1395 1391 1387 1384 1381 1378 1373 1369 1365 1361 1358 1355 1352 1349 1347 1345 1343 1340 1340 1340 1339 1338 1337 1336 1336 1335 1333 1332 1327 1324 1321 1321 1320 1318 1317 1321 1324 1327 1329 1334